Home > Weather > Arctic Bay > Past weeks

Flag for Canada Weather for the Past 2 Weeks in Arctic Bay, Nunavut, Canada

Now
19 °F

Fog.


Feels Like: 11 °F
Forecast: N/A
Wind: 6 mph from Southwest

Location: Pond Inlet

Current Time: May 5, 2016 at 7:52:23 PM

Latest Report: May 5, 2016 at 7:00 PM


Visibility: 0 mi

Pressure: 30.17 "Hg

Humidity: 93%

Dew Point: 18 °F

Location of Arctic BayLocation

Historic Weather in Arctic Bay — Graph

°F

Arctic Bay Temperature Yesterday

Maximum temperature yesterday: 30 °F (at 2:00 PM)
Minimum temperature yesterday: 18 °F (at 11:49 PM)
Average temperature yesterday: 25 °F

High & Low Weather Summary for the Past Weeks

 TemperatureHumidityPressure
High30 °F (May 4, 2:00 PM)100% (Apr 21, 9:00 PM)30.52 "Hg (Apr 21, 9:00 PM)
Low-8 °F (Apr 30, 4:00 AM)57% (May 2, 9:00 PM)29.50 "Hg (Apr 22, 5:00 AM)
Average10 °F80%30.13 "Hg
* Reported Apr 20 6:00 PM — May 5 6:00 PM, Arctic Bay, Weather by CustomWeather, © 2016

Note: Actual official high and low records may vary slightly from our data, if they occured in-between our weather recording intervals... More about our weather records

Advertising

Arctic Bay Weather History for the Previous 24 Hours

Scroll right to see more
 ConditionsComfort  
Time TempWeatherWind HumidityBarometerVisibility
6:00 PM
Thu, May 5
18 °FFog.5 mph93%30.17 "Hg0 mi
5:00 PM18 °FFog.3 mph100%30.17 "Hg0 mi
4:47 PM18 °FFog.5 mph93%30.17 "Hg0 mi
4:00 PM18 °FIce fog.6 mph93%30.17 "Hg0 mi
3:00 PM18 °FIce fog.7 mph93%30.17 "Hg0 mi
2:00 PM18 °FIce fog.7 mph93%30.18 "Hg0 mi
1:45 PM18 °FLow clouds.7 mph100%30.17 "Hg0 mi
1:00 PM18 °FIce fog.5 mph93%30.17 "Hg1 mi
12:53 PM18 °FIce fog.3 mph93%30.17 "Hg1 mi
12:00 PM18 °FFog.6 mph86%30.17 "Hg5 mi
11:00 AM18 °FPartly sunny.5 mph86%30.18 "Hg30 mi
10:59 AM18 °FPartly sunny.3 mph86%30.18 "Hg9 mi
10:00 AM18 °FLow clouds.6 mph86%30.18 "Hg9 mi
9:00 AM16 °FCold.5 mph93%30.18 "Hg9 mi
8:00 AM14 °FCold.3 mph92%30.19 "Hg9 mi
7:00 AM14 °FCold.5 mph92%30.18 "Hg9 mi
6:00 AM14 °FCold.5 mph92%30.18 "Hg9 mi
5:00 AM12 °FCold.3 mph92%30.17 "Hg9 mi
4:00 AM12 °FLight snow. Cloudy.8 mph92%30.17 "Hg9 mi
3:53 AM12 °FLight snow. Cloudy.8 mph92%30.17 "Hg9 mi
3:00 AM16 °FCold.3 mph93%30.16 "Hg9 mi
2:00 AM16 °FCold.3 mph93%30.15 "Hg9 mi
1:00 AM14 °FCold.6 mph92%30.14 "Hg9 mi
12:01 AM18 °FCold.2 mph93%30.14 "Hg9 mi
11:49 PM
Wed, May 4
18 °FLight snow. Cloudy.3 mph86%30.14 "Hg9 mi
11:00 PM19 °FCold.No wind86%30.13 "Hg9 mi
10:00 PM21 °FLight snow. Cloudy.5 mph86%30.12 "Hg9 mi
9:59 PM23 °FLight snow. Cloudy.5 mph80%30.12 "Hg9 mi
9:00 PM23 °FCold.8 mph86%30.11 "Hg9 mi
8:00 PM25 °FCold.7 mph80%30.10 "Hg9 mi
7:00 PM27 °FChilly.13 mph80%30.08 "Hg9 mi
Weather by CustomWeather, © 2016

See weather overviewHow to use our weather pages